Showing default

AISSAT 2, 40075

Orbit data source: Space-Track

AISSAT 2, 40075 is a payload satellite owned by NSC (NO) in SSO that was launched on Tue, 08 Jul 2014 UTC via a SOYUZ-2-1B launch vehicle from the Tyuratam Missile And Space Complex (TTMTR). Payload-class satellites include a variety of spacecraft equipped with specific instruments for various scientific and technological missions. These include communications satellites like Starlink; space stations such as the ISS; scientific satellites like the Hubble; Earth observation satellites from companies like Planet Labs, Umbra, and HawkEye 360; GPS; miniature CubeSats for education and research; and military/defense satellites.

Loading next visibility...
Identifier
40075, 2014-037G
Orbit
SSO
Country
Flag of NONO / NOR
Related business
Manufacturer
UTIAS-SFL
Mission
Non-operational Civil Communications
Bus & Motor
GNB, Unknown motor
Mass
7 kg wet, 7 kg dry
Launch date (UTC)
2014-07-08 (11 years ago)
Launch vehicle
SOYUZ-2-1B
Launch site
Tyuratam Missile And Space Complex (TTMTR)
Object type
Payload
Rocket body
Debris
Shape & HBR
Box + 2 Ant, 1.0 m
Radar Cross Section
0.093 m², Medium (>0.1 m² and < 1m²)

Expand to show TLE details & history
Last TLE update: 6 hours ago

TLE from 6 hours ago
0 AISSAT 2
1 40075U 14037G   25353.83631090  .00002420  00000-0  24202-3 0  9990
2 40075  98.3817 309.9313 0006038 117.6617 242.5214 14.92478199619985
Epoch: 2025-12-19T20:04Z
TLE epoch observation values (Epoch: 2025-12-19T20:04:17.261Z)
Latitude
-0.00001°
Longitude
-79.81237°
Altitude
595.179 km
Speed
7.561 km/s
True Right ascension
20h 39m 43s
True Declination
0° 00' 00"
Sunlit
Object was in daylight at epoch
Visualization orbit readout
Latitude
Unknown
Longitude
Unknown
Altitude
Unknown
Speed
Unknown
Apparent Right ascension
Unknown
Apparent Declination
Unknown
Sunlit
N/A
Visualization observer readout
Local Sidereal Time
00:39:58
Azimuth
Unknown
Elevation
Unknown
Doppler factor
Unknown
Orbital elements
Apogee altitude
591.463 km
Perigee altitude
583.052 km
Semi-major axis
6,965.395 km
Eccentricity
0.0006
Inclination
98.3817°
RAAN
309.9313°
Arg. of periapsis
117.6617°
True anomaly
242.46004°
Mean anomaly
242.5214°
Eccentric anomaly
242.49072°
Mean motion
3.73357 °/min
Orbital period
96.42 mins
BSTAR
0.00024202
Loading maneuver chart data...
Computing Atmospheric mass density...
Loading historical data...
Loading historical data...
Loading historical data...
Loading historical data...
Loading historical data...
Loading historical data...
Loading historical data...

Documentation

Showing up to 5 results
|